GFSNW_925_spd_000.txt.gz
Wind_Speed
2 5 6 7 13 17 10 7 5 7 10 6 7 8 2 1 7 1 4 5 4 4 4 2 5 8 8 5 5 4 4 3 2 8 5 3 3 5 3 1 1 2 1 6
2 5 7 5 14 17 6 6 4 5 6 4 2 3 6 3 6 7 4 2 1 2 5 3 7 8 5 5 7 4 5 2 2 7 5 3 3 3 1 6 2 3 2 3
2 4 6 3 11 16 4 4 3 4 5 8 10 7 7 5 4 4 2 5 4 5 5 5 6 9 4 5 7 4 3 1 2 2 5 7 7 8 8 8 3 5 6 14
2 4 5 5 4 11 5 3 4 7 5 5 6 10 9 10 6 4 6 5 5 7 2 6 5 11 8 4 2 1 3 3 6 8 9 9 10 11 11 12 10 8 10 13
2 3 4 6 1 8 4 3 2 3 6 10 8 4 6 10 8 8 7 5 7 7 6 4 6 6 4 3 3 2 5 2 3 3 4 9 12 14 14 15 14 9 12 13
1 3 5 6 3 5 6 2 2 2 2 4 6 5 8 9 9 4 7 7 8 12 13 13 11 11 8 6 3 4 3 2 1 2 9 9 2 4 5 4 6 9 5 8
1 4 5 6 5 0 3 2 2 3 1 3 6 10 8 11 9 6 9 9 8 9 15 12 11 13 10 7 6 6 5 2 2 2 5 3 3 12 12 9 7 7 7 8
2 3 5 6 6 4 4 1 4 3 2 6 9 9 8 12 7 11 13 10 12 10 3 3 3 2 4 4 5 7 4 2 3 1 3 9 11 4 6 5 10 10 7 7
2 3 5 6 6 6 5 4 3 2 4 3 8 8 12 7 8 6 5 6 5 2 2 2 3 2 2 5 6 8 5 5 1 2 2 3 2 7 6 8 8 8 9 10
3 2 4 5 6 6 5 2 3 3 2 4 4 7 9 8 7 5 7 5 2 1 2 3 3 3 2 5 6 4 2 1 3 4 4 6 9 4 4 3 2 5 5 9
3 1 2 4 5 5 6 2 6 3 3 3 5 1 8 4 6 5 8 4 2 2 3 3 2 2 4 2 3 6 7 7 4 3 3 6 2 2 1 4 6 4 2 4
2 1 1 3 4 4 3 0 6 8 3 4 5 6 6 6 8 5 8 3 6 4 3 2 1 2 2 2 3 8 4 6 4 9 5 8 2 5 4 2 3 2 3 6
3 1 1 2 3 3 3 4 3 3 2 3 4 3 4 3 5 5 3 1 3 6 5 4 3 3 4 4 5 2 3 7 3 2 7 9 5 3 8 6 2 2 4 5
4 3 2 1 2 2 2 3 3 2 6 4 2 3 3 2 2 2 3 7 8 9 5 3 3 3 8 5 6 3 5 5 6 9 12 9 8 5 6 3 5 5 6 10
5 3 3 2 1 1 3 2 2 2 4 3 1 2 2 2 4 5 7 13 6 3 3 2 4 2 1 3 1 4 6 10 7 8 4 2 4 4 3 4 3 6 4 5
6 3 2 3 3 2 0 2 2 1 4 3 2 2 3 3 5 7 8 9 4 4 4 3 3 6 3 3 3 8 11 9 7 8 4 3 2 5 3 4 3 5 4 7
8 5 3 3 3 1 2 1 2 2 3 2 1 2 1 3 6 3 2 2 1 1 2 3 2 2 3 4 5 8 9 10 9 6 5 3 3 3 5 4 1 2 4 10
10 7 4 4 3 2 2 2 1 3 1 1 3 2 1 3 2 1 4 2 2 1 1 2 2 2 2 4 7 8 11 7 9 6 2 4 2 6 4 3 2 5 7 11
12 8 5 2 2 4 2 3 2 1 2 2 2 6 4 6 2 2 2 1 1 1 1 2 1 3 6 7 8 8 7 5 8 5 6 5 3 3 2 2 4 6 8 11
15 9 3 1 3 6 9 2 1 2 2 1 3 3 3 5 1 1 2 2 1 2 2 1 2 5 10 10 5 2 8 7 6 5 6 6 3 1 2 4 7 8 8 10
5 3 1 1 9 4 0 2 2 2 3 3 3 4 4 3 3 3 0 3 2 3 2 3 3 3 7 12 7 4 5 7 6 8 8 7 2 2 4 4 5 4 8 11
6 9 7 4 3 2 4 5 2 4 5 3 4 2 3 2 1 3 2 3 2 5 5 2 3 3 7 10 9 7 8 11 11 9 7 4 2 5 5 4 7 12 13 17
6 6 3 2 2 3 3 5 3 3 2 2 2 3 2 2 2 3 2 6 5 1 3 3 1 6 7 10 8 9 14 15 9 6 4 5 6 8 10 12 14 15 16 19
3 1 3 1 2 1 1 2 2 2 2 3 3 3 2 1 2 2 4 1 2 3 3 3 4 5 7 8 7 9 9 9 6 3 3 6 9 12 14 15 16 16 19 22
2 0 2 2 1 1 2 1 1 3 1 2 2 2 2 2 3 1 3 4 3 3 1 2 3 6 9 7 7 7 6 5 1 2 6 9 14 16 17 17 17 17 17 17
2 2 2 1 0 2 2 2 2 1 1 1 2 2 2 2 2 2 2 2 1 2 2 2 4 6 6 4 4 5 2 0 4 7 11 14 15 15 17 17 19 23 21 18
1 1 1 1 2 2 1 1 1 3 2 2 1 2 4 1 0 0 1 0 2 1 1 4 5 4 3 1 2 3 5 7 10 12 13 15 17 16 12 15 22 19 19 20

GFSNW_925_spd_003.txt.gz
Wind_Speed
1 3 4 6 12 16 14 2 1 9 10 3 3 3 4 1 2 4 5 6 6 4 5 6 6 4 5 8 6 3 3 4 3 3 3 2 2 3 4 4 3 1 4 5
2 3 4 4 14 19 6 3 3 4 2 3 3 6 3 3 5 2 2 5 5 5 4 5 10 5 6 8 5 1 3 2 3 5 4 4 2 3 5 6 3 3 4 5
2 2 4 2 13 19 0 1 2 3 1 2 4 4 2 3 6 4 5 5 2 6 5 5 4 4 3 5 3 3 3 3 5 5 3 1 3 4 3 6 4 4 6 6
2 2 3 3 7 10 5 1 4 7 3 4 5 5 8 6 1 1 3 1 4 5 4 5 5 5 4 2 1 3 3 3 5 4 6 5 4 5 6 4 6 6 9 8
2 3 3 4 4 9 5 1 3 2 5 4 2 4 5 9 7 5 5 4 6 8 4 2 6 8 5 4 5 2 5 1 2 3 7 9 5 8 8 7 7 6 3 7
3 3 4 4 4 10 4 6 2 5 3 3 4 3 1 2 7 4 5 8 13 14 6 10 7 8 7 6 4 3 4 4 3 2 4 5 5 4 3 2 2 2 1 5
4 4 5 5 4 4 2 3 3 4 3 3 5 5 2 7 6 5 6 9 8 3 4 6 9 11 12 9 8 5 5 4 3 2 3 2 5 4 3 6 6 7 13 11
5 5 6 6 4 3 2 2 3 3 1 3 1 4 6 13 14 9 11 8 7 7 6 5 5 5 7 6 5 7 5 4 3 2 1 5 7 2 3 4 4 9 10 8
5 5 6 7 6 4 4 4 4 4 5 4 5 4 11 5 4 5 5 6 7 7 3 4 4 4 5 3 3 8 6 5 4 2 4 6 7 4 6 4 2 4 7 6
5 5 6 7 7 6 4 5 4 2 3 3 5 3 6 6 5 4 3 1 5 6 3 3 2 3 3 5 7 4 3 3 4 4 3 7 8 2 5 5 6 5 5 4
4 4 5 7 7 7 6 6 9 3 3 3 7 7 5 4 5 5 5 4 4 3 3 3 3 2 4 3 6 6 7 6 4 2 2 7 6 2 7 5 4 6 5 5
3 4 4 5 6 6 7 5 9 8 5 3 6 11 11 7 3 6 3 6 4 5 4 1 2 1 1 3 3 4 2 7 6 8 6 7 6 6 5 6 6 5 4 2
3 3 3 4 6 7 9 7 10 5 4 4 4 4 7 7 11 6 5 3 5 4 3 3 3 3 4 4 5 1 3 5 3 4 4 4 7 4 5 5 6 6 6 6
2 2 3 3 4 6 8 7 8 6 6 4 4 1 3 4 6 5 3 8 11 9 4 3 3 3 5 4 4 4 5 3 1 3 3 5 5 6 6 6 5 7 6 4
3 2 2 2 2 4 6 7 8 6 4 4 2 2 3 2 3 7 10 19 6 3 3 3 3 2 3 1 2 2 4 5 3 6 4 4 4 7 7 6 7 7 6 4
4 4 3 2 2 3 3 2 2 4 4 4 1 1 1 1 2 4 8 6 3 3 4 3 3 4 4 3 3 5 6 6 5 4 5 6 9 8 6 5 6 12 9 11
5 4 4 4 3 4 5 3 1 3 3 3 2 2 5 4 3 5 4 6 2 2 3 1 3 2 3 3 5 6 8 7 2 9 10 4 6 3 7 11 12 11 16 17
7 6 6 6 5 5 2 3 3 3 4 4 3 2 3 4 2 2 5 2 3 3 2 1 1 3 2 3 6 8 11 8 8 7 5 5 8 5 10 13 13 8 7 10
10 8 7 5 3 2 2 2 3 1 3 3 2 5 4 2 2 2 3 2 1 1 1 2 2 2 5 7 7 6 5 7 11 7 6 4 7 11 8 8 8 7 5 7
12 6 3 1 1 1 4 1 3 4 3 2 2 3 2 3 1 1 2 2 1 1 3 1 2 4 4 5 1 3 7 11 10 8 7 7 7 8 7 7 7 8 4 2
5 3 1 1 5 2 2 0 2 1 2 2 3 4 4 2 3 2 1 2 1 2 3 4 3 4 4 7 5 6 6 6 4 9 11 12 10 7 6 6 4 1 5 8
6 9 6 4 3 2 3 3 1 2 4 2 2 1 2 1 1 3 1 3 2 5 3 2 4 3 3 9 8 6 10 16 14 18 15 18 16 12 7 3 6 8 10 12
5 5 3 2 3 2 4 5 2 0 2 2 1 2 2 2 3 2 3 5 5 2 3 4 3 1 5 6 10 12 18 21 19 16 16 13 8 4 4 7 10 11 12 14
3 2 3 1 2 2 1 1 1 1 1 1 1 2 2 1 2 2 4 2 2 3 3 4 1 6 8 9 7 10 7 12 11 9 7 2 4 7 9 12 13 12 14 16
2 1 3 2 1 0 0 0 1 2 1 2 2 2 2 1 2 0 3 1 2 2 1 2 3 4 6 6 6 7 7 7 5 3 2 5 8 10 13 13 11 12 13 15
2 3 2 2 2 1 1 1 1 0 1 1 2 1 1 2 1 1 1 3 1 2 2 2 2 2 3 4 5 6 7 7 3 5 8 8 9 12 14 13 15 18 16 15
2 2 2 2 2 2 1 1 1 1 1 1 1 3 1 0 0 0 1 2 2 2 1 1 3 4 3 4 5 1 3 6 8 10 10 12 14 13 11 13 21 21 21 21

GFSNW_925_spd_006.txt.gz
Wind_Speed
9 5 7 14 18 19 16 5 3 4 8 3 1 2 4 3 3 4 5 3 3 5 4 5 3 3 4 7 2 3 2 5 3 1 3 1 1 3 4 4 2 2 4 4
9 6 7 15 19 22 9 4 2 3 1 3 2 5 4 2 2 2 2 3 3 3 4 6 3 4 2 7 4 2 2 2 3 6 6 6 4 2 5 6 3 3 5 5
9 7 7 13 21 20 7 3 2 4 3 1 5 2 1 2 4 3 4 3 6 5 4 6 4 3 3 4 3 2 2 3 4 6 4 3 0 2 3 5 3 4 6 6
9 7 7 11 18 23 4 2 4 6 3 3 3 3 3 2 2 2 4 4 3 5 4 3 4 3 2 4 3 3 3 4 2 2 3 1 1 2 1 4 4 5 7 7
9 8 8 11 18 19 4 3 3 2 3 6 4 4 6 9 3 3 1 2 4 6 5 6 7 7 3 4 1 3 4 2 1 0 5 6 3 5 5 4 4 4 9 5
9 8 8 10 20 18 3 3 1 5 3 4 4 4 6 8 8 2 3 12 7 10 2 5 5 5 6 5 5 3 4 4 3 3 5 6 5 4 3 1 4 3 6 6
9 8 9 10 16 16 7 4 3 4 2 4 6 3 4 5 1 7 3 5 7 4 6 3 7 11 12 12 8 4 5 4 3 2 4 1 5 5 4 9 3 10 11 7
9 10 10 9 11 11 9 4 3 3 1 2 0 6 9 8 7 6 5 5 2 7 5 5 5 5 7 5 7 6 4 4 3 3 3 5 6 4 6 5 3 4 9 7
9 9 9 10 9 8 7 6 6 5 5 4 2 6 7 6 4 6 4 5 5 7 4 4 4 4 4 2 1 5 6 6 4 3 4 6 6 2 4 5 4 9 7 8
9 9 9 10 8 7 8 6 5 5 4 3 2 4 6 6 4 4 1 0 4 4 3 3 3 3 5 5 6 4 3 3 4 3 2 8 7 7 2 5 7 8 8 7
8 8 9 10 9 8 8 8 7 3 3 2 4 3 5 4 3 5 5 4 4 3 4 3 4 3 5 2 4 6 7 6 4 3 2 7 7 5 7 6 3 7 6 6
8 8 9 9 9 8 8 6 7 9 4 3 6 11 8 0 8 6 1 6 4 5 4 1 3 1 1 3 3 3 2 7 5 9 7 5 6 6 2 6 5 6 7 6
7 7 8 9 10 10 10 10 8 6 4 4 4 3 8 9 7 11 5 2 5 4 3 4 3 3 4 4 6 2 4 5 3 3 5 7 7 2 5 5 6 6 6 7
6 7 7 8 10 12 9 10 8 8 6 4 4 3 4 6 6 5 4 11 9 8 3 3 3 3 4 3 3 4 5 4 4 4 4 2 2 3 7 7 7 7 8 8
6 6 7 7 9 12 13 14 13 8 5 4 2 2 4 5 5 7 13 20 6 3 2 2 3 2 3 1 2 3 4 7 4 7 7 6 5 7 8 8 8 8 8 10
7 7 6 6 7 11 4 3 5 7 4 4 1 4 5 8 6 7 8 5 3 3 4 3 2 3 4 4 4 7 5 5 6 5 6 6 4 9 8 7 6 9 16 16
8 8 8 7 6 5 6 4 2 4 4 3 2 3 4 5 5 5 3 6 2 3 2 1 3 2 4 3 4 6 8 8 7 4 7 3 4 6 7 13 15 19 18 19
9 10 11 10 11 10 6 9 7 4 8 5 3 2 4 4 2 1 3 2 2 3 2 1 2 2 2 3 8 8 9 10 4 8 2 6 7 8 11 19 18 11 8 10
11 12 10 5 4 3 2 5 5 6 5 4 2 5 4 2 2 1 3 2 1 2 2 2 3 2 5 7 7 6 7 7 8 7 6 7 10 12 11 10 7 8 5 5
12 4 5 3 3 2 3 2 4 5 3 2 2 2 2 3 1 2 2 2 1 1 3 1 2 4 5 6 7 6 6 7 11 8 7 9 10 10 6 7 6 7 5 3
3 3 2 2 4 2 4 2 3 0 2 1 1 2 3 1 3 2 1 2 0 1 4 4 3 3 4 6 5 2 5 7 8 13 14 15 12 8 7 6 6 5 1 2
6 11 7 3 4 3 3 2 1 2 2 2 1 1 2 1 2 3 1 3 2 6 2 2 3 3 6 1 6 9 14 19 17 25 18 14 14 10 8 5 3 4 6 9
5 5 4 2 3 2 4 6 1 1 2 2 1 1 1 2 2 2 2 4 5 2 3 3 2 4 7 9 10 12 20 25 19 15 16 11 7 5 8 5 6 7 9 11
3 3 3 2 2 1 1 1 1 1 0 1 1 2 1 0 1 1 3 1 2 2 2 3 2 6 8 8 6 9 5 9 13 10 9 7 6 6 6 7 9 10 11 11
3 2 3 2 1 2 1 1 1 1 0 1 2 2 1 1 2 1 2 1 1 2 0 1 1 3 4 4 3 4 4 5 7 5 5 5 5 5 8 9 9 9 10 11
3 3 3 1 1 1 1 1 1 0 1 1 1 1 1 1 1 1 2 3 0 1 0 1 1 2 3 3 3 5 4 2 1 2 5 7 8 9 10 13 13 14 15 16
2 2 2 2 2 2 0 0 1 0 1 1 0 2 2 1 1 0 2 2 2 1 1 2 2 2 3 4 4 1 1 4 6 7 8 10 11 9 11 13 18 17 17 17

GFSNW_925_spd_009.txt.gz
Wind_Speed
20 16 16 19 23 25 20 6 3 1 7 3 1 3 4 4 3 6 4 4 3 5 4 4 3 4 0 5 1 2 1 5 3 1 5 3 1 2 4 4 3 1 3 5
18 16 16 21 26 28 11 4 2 3 2 4 2 4 4 1 1 3 2 3 2 2 5 6 2 3 1 3 3 3 2 2 3 6 6 5 2 3 5 6 3 4 5 5
18 15 16 23 28 28 11 4 2 4 4 1 7 3 4 1 4 3 3 3 5 5 5 6 4 3 1 2 3 3 5 3 5 6 4 3 3 2 3 4 3 3 5 4
17 14 16 24 30 26 8 2 4 5 3 2 4 5 2 3 2 1 3 4 3 5 4 3 4 2 2 3 2 4 4 3 1 3 4 2 1 3 5 6 4 5 6 7
15 14 16 22 30 22 3 4 4 3 2 6 6 3 5 7 2 3 1 6 2 2 6 6 8 6 2 3 5 4 4 3 1 1 6 6 3 5 6 5 4 6 3 4
15 13 15 24 31 22 4 3 2 5 3 4 5 5 6 8 5 6 3 9 5 5 2 4 5 5 6 5 5 3 4 5 3 3 4 5 6 7 6 4 3 6 6 7
14 12 15 24 31 26 5 4 4 4 2 3 6 6 2 6 4 7 1 5 6 3 5 5 7 12 12 12 8 4 5 4 3 2 3 2 6 4 6 4 1 3 3 9
13 11 14 22 32 22 6 4 4 4 2 2 4 7 6 6 6 5 3 5 1 9 5 5 5 5 6 5 7 6 3 5 3 4 3 5 6 5 6 6 7 5 8 6
12 11 12 17 24 21 14 7 6 3 6 3 6 5 3 5 4 5 3 5 9 7 4 4 4 4 4 2 1 4 5 6 4 2 4 6 6 3 4 4 5 10 8 9
12 11 13 14 19 25 15 4 4 4 4 2 4 4 6 6 4 4 1 3 3 3 3 3 3 3 3 4 5 3 2 3 4 3 3 8 7 4 2 5 7 8 11 11
11 12 11 11 14 13 10 7 4 3 3 2 1 2 6 4 3 5 5 4 4 3 4 3 4 3 5 2 4 5 7 6 4 3 1 8 7 4 7 6 1 9 8 8
11 11 12 11 15 18 11 6 11 12 5 3 4 10 7 1 7 6 2 5 4 5 4 1 3 2 2 2 3 2 3 7 5 9 6 4 6 5 4 6 6 7 8 6
12 11 11 11 11 11 10 13 8 8 4 4 4 3 8 8 4 6 5 2 5 3 3 3 3 3 4 4 6 1 4 4 3 2 5 8 8 5 4 7 6 6 7 8
11 11 12 12 12 11 12 10 8 9 4 4 4 5 5 9 4 3 4 12 9 8 3 3 3 3 4 3 3 4 5 5 4 5 7 5 7 7 6 6 5 6 7 8
11 10 11 12 14 15 18 19 15 8 5 4 2 3 7 12 7 11 15 20 6 3 2 2 3 2 3 1 1 3 5 7 4 7 8 6 6 6 7 9 9 8 8 6
10 9 9 9 11 10 4 4 9 10 5 4 2 4 5 12 13 15 11 6 3 3 4 3 2 3 3 4 4 7 5 5 7 8 6 7 4 5 6 9 8 6 9 12
12 11 9 7 7 4 8 4 2 5 5 3 3 3 4 5 5 4 3 6 2 2 3 2 3 2 4 4 4 11 8 9 8 7 5 2 4 5 6 7 10 19 19 18
14 14 14 16 16 13 8 10 8 6 10 4 4 2 4 6 2 2 3 2 2 3 2 1 2 1 2 3 11 7 8 8 7 6 7 5 4 6 9 18 19 13 11 11
14 13 12 5 5 4 2 6 8 12 7 4 2 5 4 2 2 1 3 2 2 2 2 2 3 2 5 7 4 4 5 5 5 1 3 5 6 11 12 12 10 13 5 5
11 4 5 3 4 3 3 3 4 5 3 3 2 1 2 2 1 2 2 2 1 1 3 2 2 3 4 4 5 7 8 7 5 5 5 8 11 12 12 11 7 6 7 8
4 3 2 2 3 2 3 3 3 1 3 3 1 2 2 2 3 2 1 2 0 2 4 3 2 3 3 10 8 8 7 9 10 13 16 15 13 13 10 5 4 5 5 5
6 11 7 2 4 3 5 2 1 1 2 2 1 1 1 0 2 3 1 2 1 5 1 1 3 2 5 8 11 13 16 21 19 25 21 19 16 10 6 4 2 5 6 3
5 6 4 3 3 3 4 5 1 2 2 2 2 1 1 2 3 2 2 4 4 1 2 3 1 4 6 7 8 11 15 21 19 14 12 10 9 7 3 1 3 4 6 6
4 3 3 1 1 2 2 1 2 1 0 1 1 2 2 1 2 1 2 0 1 2 2 2 2 3 5 6 5 6 5 7 9 10 9 7 5 3 3 4 4 6 6 6
3 3 3 2 1 2 1 1 1 1 0 1 2 2 1 2 2 1 1 1 1 1 1 1 1 3 4 4 3 5 6 6 5 4 3 3 1 1 4 5 8 7 7 9
3 3 3 1 2 1 1 1 1 0 1 1 2 1 2 1 1 2 3 3 1 1 1 1 1 3 6 5 3 2 4 5 2 2 2 4 7 8 9 11 11 11 11 13
3 2 2 2 2 2 1 1 1 1 1 1 1 3 3 1 1 1 1 1 2 1 1 1 3 3 5 6 5 4 3 7 8 8 8 8 8 8 8 10 14 14 14 14

GFSNW_925_spd_015.txt.gz
Wind_Speed
43 38 33 29 25 20 28 5 3 6 14 3 0 4 5 3 4 3 4 4 4 4 3 3 3 6 1 1 1 4 1 4 2 1 0 2 1 3 4 3 4 1 0 5
43 40 36 30 26 30 16 4 3 2 5 4 1 2 2 2 2 1 3 3 3 2 4 4 2 3 2 1 3 5 5 1 3 3 2 1 2 2 4 5 2 5 3 3
42 40 36 32 28 33 10 3 3 2 3 1 8 5 3 1 3 2 3 5 4 4 3 4 5 3 2 2 3 6 4 2 4 7 3 1 4 4 5 3 3 4 6 4
43 39 35 32 30 36 4 1 3 3 3 1 5 4 5 4 2 1 2 3 2 5 4 2 3 2 2 3 1 3 2 4 2 1 1 2 2 4 8 7 4 6 3 8
40 38 34 31 31 39 3 4 4 3 2 5 6 2 6 6 2 1 1 6 3 2 5 6 8 6 4 4 2 2 2 4 1 4 1 3 3 6 7 8 4 10 6 14
38 35 33 32 34 38 6 3 3 5 3 3 6 6 6 7 6 2 4 6 4 4 1 3 4 6 8 5 5 3 2 5 3 3 2 2 5 9 11 5 6 7 9 8
35 33 30 29 34 39 5 5 5 4 2 2 6 8 4 6 6 6 3 4 4 1 11 9 8 12 13 13 10 3 5 4 2 2 1 2 4 2 2 10 6 13 4 4
31 29 28 29 37 42 5 7 5 3 3 3 3 6 5 7 4 4 3 4 1 9 3 4 4 4 5 5 7 6 3 4 3 2 3 5 5 3 5 6 6 12 13 6
28 26 27 31 38 45 5 7 10 5 6 5 6 5 5 5 4 3 3 4 6 5 3 3 4 3 4 1 1 2 4 5 3 3 2 5 5 2 3 3 4 2 9 7
24 25 27 33 40 46 9 7 8 6 4 0 5 4 6 5 4 4 4 5 1 3 2 3 3 3 1 3 4 2 2 3 3 2 4 7 6 1 2 3 4 1 7 7
21 22 27 34 41 44 13 7 8 3 3 1 0 4 5 3 2 5 5 4 2 2 3 3 3 3 4 2 3 5 5 5 3 3 1 6 5 3 5 4 2 2 7 9
17 19 25 33 40 42 16 6 6 8 4 3 5 10 7 1 6 6 1 3 4 4 4 1 3 2 1 2 3 1 3 5 3 8 5 3 5 4 1 1 3 2 3 5
16 19 26 33 38 35 14 4 12 4 3 3 3 3 7 7 4 5 5 1 4 3 2 4 2 3 3 4 5 1 3 3 2 1 3 7 10 8 8 7 10 6 7 7
15 20 29 36 39 27 21 13 12 4 3 4 2 5 5 11 2 1 2 11 9 7 2 3 3 3 4 3 2 3 3 6 4 4 8 5 8 9 11 9 7 8 6 6
18 24 29 33 32 22 23 12 5 4 3 4 1 0 10 13 9 16 19 17 6 3 3 2 2 3 4 2 1 3 6 6 4 5 8 4 6 4 2 4 5 6 6 2
23 29 27 24 23 25 18 3 4 6 7 4 3 3 5 12 17 20 12 7 4 2 3 2 1 1 2 4 3 7 3 4 4 5 3 4 6 8 4 5 5 2 3 5
19 18 18 15 11 10 6 4 1 5 6 4 3 2 4 6 5 4 4 6 3 2 2 2 2 2 2 3 3 6 8 9 9 4 4 5 2 4 7 9 15 22 22 22
24 26 28 27 23 16 12 17 11 8 11 4 4 1 3 8 2 2 3 2 2 4 2 2 2 2 1 3 4 11 12 14 1 11 6 2 7 11 12 16 18 18 15 16
16 15 15 6 8 4 2 6 12 18 10 4 3 4 3 3 2 1 2 2 3 1 1 1 3 1 2 4 9 10 11 7 11 8 11 13 15 14 14 17 15 14 11 10
8 1 6 3 4 4 4 5 4 6 4 4 3 0 2 1 0 2 2 2 1 2 1 2 2 2 5 6 6 6 8 10 4 4 8 11 13 14 13 12 11 9 7 5
4 4 2 2 5 3 4 4 4 3 4 3 1 1 3 3 2 2 0 2 1 2 2 3 1 2 2 5 6 7 10 14 16 18 17 16 11 10 8 5 5 2 1 2
7 13 8 3 5 4 6 3 1 3 2 1 2 1 2 1 1 3 0 2 1 2 2 1 2 2 3 3 6 9 12 16 17 19 16 14 12 9 5 2 1 1 1 2
5 5 5 4 4 6 4 4 1 2 1 0 1 2 1 1 2 3 2 3 2 1 1 2 2 5 4 4 5 8 10 9 11 9 6 6 5 6 7 6 6 6 6 5
4 4 5 3 3 3 1 2 2 1 1 1 2 2 2 0 3 1 2 1 1 3 4 4 3 4 6 5 3 6 4 5 5 5 4 5 6 6 7 7 8 9 10 10
4 4 4 4 2 3 2 1 2 2 1 1 2 2 1 2 3 2 3 1 2 2 3 2 4 6 6 6 4 4 2 2 3 3 4 6 7 9 10 12 11 11 13 14
3 5 3 1 2 2 2 2 2 2 1 1 2 2 2 1 2 2 3 3 3 2 2 3 6 7 5 4 2 1 2 2 4 7 8 8 10 9 9 11 16 18 16 16
3 3 2 2 3 3 2 2 2 3 2 1 1 2 1 1 2 0 2 2 1 4 4 4 5 8 7 7 6 3 2 5 7 8 10 10 10 10 16 15 18 20 19 18

GFSNW_925_spd_021.txt.gz
Wind_Speed
36 35 35 35 43 39 33 20 11 22 33 11 11 14 22 9 11 8 8 7 9 12 11 12 11 13 6 8 6 10 4 4 7 11 5 5 10 8 10 5 6 2 3 7
35 32 33 37 46 47 32 13 8 16 26 13 12 19 23 13 11 11 12 11 8 9 10 10 11 9 5 3 7 4 6 7 7 7 6 8 9 10 9 4 1 7 3 3
36 34 33 38 51 49 33 12 10 6 9 16 19 23 21 18 8 8 12 12 9 10 7 6 8 8 4 4 3 3 1 11 10 10 5 3 11 13 11 12 7 9 11 13
37 36 34 38 52 51 27 13 12 14 16 18 20 23 18 22 13 10 13 11 15 12 8 9 7 9 6 5 5 5 4 8 12 14 6 6 9 9 12 16 16 14 12 14
36 37 31 45 52 51 22 11 12 14 18 24 19 21 23 24 19 15 15 11 16 13 9 11 10 11 9 7 9 8 5 4 2 5 8 8 11 12 14 14 16 17 18 17
33 37 34 43 50 52 16 15 10 13 16 24 18 17 21 23 16 2 4 13 9 11 6 7 9 9 4 3 7 9 5 4 4 3 4 5 6 15 16 17 16 13 15 16
32 38 39 45 55 58 26 13 7 10 14 17 18 21 20 20 16 10 5 7 9 6 13 13 11 11 8 6 5 4 5 4 2 1 1 1 2 1 4 7 13 15 13 14
35 33 40 50 56 59 30 12 9 7 5 14 24 21 21 16 10 11 11 5 4 16 8 4 4 2 2 2 3 3 3 4 2 2 6 8 11 6 1 3 6 9 7 10
32 36 39 55 52 60 34 16 10 9 9 12 22 19 19 11 11 7 4 8 8 3 2 2 5 5 5 5 6 2 3 1 4 3 3 4 4 4 1 1 5 8 8 8
32 34 43 48 51 53 39 6 12 8 8 14 14 15 14 13 10 6 7 7 4 3 2 2 3 4 2 5 5 4 3 2 5 6 3 5 2 2 2 5 3 7 8 9
47 47 45 44 47 48 45 6 5 7 6 7 3 7 12 13 12 7 9 7 2 3 3 3 3 1 4 2 2 5 6 6 3 3 3 5 5 6 1 5 6 7 8 9
41 42 40 43 45 42 42 5 4 8 4 6 5 5 6 2 7 7 12 4 10 7 4 1 2 2 2 0 3 3 4 4 1 6 1 4 4 4 5 5 8 8 9 10
37 37 39 41 43 42 37 5 6 9 4 5 5 5 5 4 3 3 5 3 5 5 3 4 2 3 4 4 5 3 4 2 3 1 2 3 5 6 3 4 6 8 10 11
31 35 37 37 36 40 27 7 3 7 5 4 4 3 3 5 2 5 2 10 7 9 5 3 3 3 4 4 1 2 3 6 5 6 10 5 5 3 6 9 10 10 9 10
32 33 33 34 36 42 9 4 5 8 1 4 5 8 6 3 4 6 7 14 9 5 3 2 2 3 4 2 0 3 4 2 3 4 7 5 7 10 9 7 9 9 8 7
30 32 33 35 36 46 10 3 4 4 5 4 4 3 4 7 11 11 9 5 4 3 4 2 3 2 3 4 4 5 4 4 4 4 9 7 7 10 10 10 10 11 11 12
30 31 32 34 35 38 5 2 6 12 7 3 4 4 4 3 5 2 4 5 3 1 3 3 3 3 3 3 3 6 3 4 1 6 8 6 10 7 8 10 15 20 20 19
30 31 34 35 35 19 5 10 14 14 4 3 4 3 3 3 2 3 3 2 2 5 3 2 3 3 1 3 6 3 5 4 8 5 5 7 8 10 11 14 15 13 13 13
40 41 38 28 4 2 4 7 14 9 5 1 2 6 4 3 3 2 2 2 3 1 2 2 3 2 4 4 3 3 5 3 2 6 8 10 12 11 11 12 12 12 8 7
38 25 7 3 3 9 6 15 2 1 2 3 3 2 4 0 2 2 2 2 3 2 1 3 2 3 4 3 4 3 4 4 7 7 8 9 11 10 10 10 8 8 10 11
6 3 3 6 10 8 2 2 1 1 2 3 3 2 4 2 2 3 2 3 1 4 3 3 4 3 5 4 5 4 5 9 10 14 13 11 11 10 8 8 10 9 9 9
10 16 10 7 1 4 4 1 0 2 2 2 2 3 3 2 1 3 2 3 2 3 4 3 3 4 9 7 7 8 11 14 14 17 14 12 11 11 10 9 8 7 7 9
5 4 4 2 2 4 2 3 2 2 2 1 2 3 2 3 3 3 2 3 2 3 2 3 3 8 8 9 10 12 15 15 14 13 12 11 12 12 10 10 9 8 9 9
5 4 5 5 3 4 3 3 3 2 2 1 4 3 2 1 3 1 4 2 1 3 3 3 4 7 9 9 9 11 11 7 9 10 11 11 12 12 13 12 11 10 10 9
5 5 4 4 2 3 2 1 2 3 2 2 3 3 2 2 3 2 4 3 3 4 0 2 5 9 8 9 11 10 9 4 7 9 10 10 10 10 10 9 9 9 9 10
4 6 3 1 2 3 3 4 3 4 2 2 3 2 2 2 2 3 3 2 2 2 3 3 7 8 7 8 9 9 8 7 9 10 11 10 9 8 7 6 9 9 9 10
4 3 2 2 4 4 2 2 2 4 2 2 2 2 4 1 2 2 3 3 3 4 4 4 6 9 8 8 11 8 8 10 10 10 9 8 7 6 6 7 9 8 7 9

GFSNW_925_spd_024.txt.gz
Wind_Speed
33 42 38 35 33 33 39 17 9 33 41 10 11 14 22 21 22 10 9 16 16 15 12 13 12 14 13 11 8 5 6 3 4 10 2 6 8 9 10 3 4 2 1 7
29 39 39 38 37 40 29 11 8 29 27 13 12 18 25 24 24 14 15 15 16 10 11 7 10 5 5 6 3 1 1 2 4 8 7 8 8 11 10 5 3 5 3 4
29 37 39 40 40 43 30 10 10 5 9 12 19 23 20 24 23 17 14 16 13 8 10 9 9 6 4 3 3 4 4 5 8 6 10 4 7 12 10 10 3 3 8 13
32 37 38 40 40 43 29 7 11 11 13 17 19 20 18 25 21 19 15 16 17 11 8 11 7 7 7 3 3 2 2 7 10 13 15 3 10 11 8 12 10 10 10 14
36 40 38 37 38 41 25 10 10 12 9 19 21 20 25 24 22 17 15 15 13 14 9 9 10 11 8 8 7 7 5 1 3 3 11 14 12 14 13 15 13 14 14 13
40 42 40 38 38 44 11 19 14 9 12 22 20 20 22 24 18 19 18 18 14 17 5 10 10 11 8 4 9 9 6 3 2 2 5 6 5 9 16 15 14 12 10 10
41 40 39 37 37 43 22 25 10 5 15 19 23 25 23 23 21 12 10 12 14 9 14 13 12 12 10 8 6 7 3 3 1 1 1 1 7 3 5 5 8 10 11 9
36 36 37 39 33 45 40 24 4 4 9 17 25 27 22 23 19 13 10 7 7 14 9 4 4 2 3 1 3 4 6 4 2 2 4 7 11 2 2 1 3 11 10 11
31 33 36 39 40 32 48 32 13 6 10 17 30 23 20 13 6 3 5 10 6 4 2 2 4 4 5 6 6 2 3 4 1 3 2 4 0 4 2 2 2 9 9 8
30 36 37 40 39 41 32 23 25 9 5 13 20 18 14 11 9 6 11 5 3 3 2 2 2 3 6 5 6 4 2 1 4 3 2 5 3 5 1 2 3 4 6 7
35 34 34 32 37 38 33 34 39 9 3 11 18 16 15 8 11 7 8 6 3 3 2 3 2 2 3 2 6 6 6 6 3 2 2 5 5 5 3 4 4 7 7 7
33 33 34 32 27 33 35 18 38 38 10 5 15 15 11 4 7 6 9 5 9 5 3 1 3 2 2 3 2 10 3 4 2 7 4 5 3 3 3 5 4 4 5 6
33 33 33 31 29 38 40 36 32 11 2 5 5 6 8 12 9 10 4 3 8 5 3 3 2 3 4 3 4 3 4 4 1 2 4 5 3 1 0 5 7 9 9 8
36 45 42 33 32 35 40 33 39 21 6 5 5 2 4 6 3 5 4 1 8 6 5 3 3 3 4 3 2 3 1 8 6 6 8 5 7 12 10 8 9 10 10 13
25 32 35 33 32 32 35 33 31 19 4 4 5 7 5 1 4 7 5 8 7 5 3 2 2 2 4 2 1 1 6 3 3 3 8 3 9 11 9 11 10 11 11 13
38 37 37 34 32 30 13 4 7 5 8 4 3 2 2 6 10 9 8 6 5 4 3 2 3 2 2 3 3 6 9 7 5 3 6 5 12 12 13 12 12 13 13 16
34 32 32 31 31 29 2 3 3 6 5 3 3 3 1 7 9 4 4 2 2 2 3 2 3 2 2 3 3 11 6 5 6 5 4 10 6 8 12 15 15 17 16 15
35 32 29 26 25 13 5 10 5 6 4 3 3 0 3 2 2 3 3 2 3 5 3 1 2 2 1 2 9 9 5 4 7 6 9 12 13 15 12 14 13 12 11 12
32 30 30 28 15 4 2 8 16 18 9 1 2 4 4 3 3 2 2 1 2 1 2 2 3 1 3 5 8 7 5 3 7 8 13 13 12 11 11 11 11 11 8 8
46 43 8 3 3 14 4 1 2 4 4 3 1 2 3 2 2 2 2 2 3 2 1 2 1 2 5 5 6 6 4 6 8 13 11 10 10 10 10 11 12 12 11 12
10 3 3 8 9 4 3 3 2 3 1 1 1 3 3 3 2 3 2 2 0 4 3 4 3 3 6 6 7 4 5 10 8 13 12 10 10 9 10 10 13 13 13 10
11 21 12 4 2 3 5 3 2 2 1 1 1 2 3 2 1 3 2 3 2 3 4 3 4 4 10 9 8 7 9 12 13 17 14 16 15 14 14 13 11 10 12 11
10 7 4 3 4 4 1 4 1 1 2 2 2 2 1 2 3 3 3 3 2 5 2 3 2 8 8 9 9 10 13 16 16 16 17 17 16 16 15 12 10 10 13 11
4 3 5 4 3 3 0 2 1 2 2 1 2 2 2 1 3 1 4 1 3 3 3 3 4 9 8 7 9 11 12 8 12 14 15 14 14 14 14 12 10 11 12 10
5 5 4 3 2 1 1 2 1 2 2 1 2 3 3 3 4 2 4 2 3 4 1 2 5 9 7 9 10 11 8 6 10 13 12 13 12 12 11 11 10 11 11 11
3 5 3 2 2 3 3 4 3 5 3 2 2 3 3 4 2 1 1 3 1 2 2 3 7 8 7 8 10 10 12 12 15 14 13 12 10 10 11 10 10 9 11 11
4 4 2 2 4 4 2 2 3 4 2 3 2 4 3 0 1 3 4 3 2 2 3 3 6 9 7 8 12 12 13 14 14 14 11 10 9 10 7 6 8 6 7 10

GFSNW_925_spd_027.txt.gz
Wind_Speed
41 33 42 45 40 35 35 7 7 26 40 6 4 13 12 10 17 12 11 2 3 7 6 8 9 11 2 7 9 9 10 5 4 15 15 6 4 5 5 5 5 2 4 5
42 31 38 46 44 44 32 6 5 27 31 12 11 7 14 17 20 17 6 2 2 3 3 6 8 4 4 6 5 6 2 0 2 7 6 5 3 4 4 4 3 4 5 5
43 41 25 44 46 48 27 5 8 5 8 10 18 16 17 21 13 20 17 7 6 6 4 14 7 4 2 5 4 3 4 3 6 6 7 2 3 3 5 5 4 3 5 5
34 34 40 37 46 50 26 4 7 8 13 16 13 18 14 17 17 16 7 8 9 7 4 1 5 5 4 2 2 2 4 4 1 3 5 5 4 3 6 5 6 6 8 7
38 33 40 34 46 48 30 4 8 6 4 16 16 19 21 24 20 15 17 10 10 7 5 6 7 7 5 5 1 4 1 1 2 2 6 7 4 6 7 7 6 2 3 6
39 37 37 29 45 46 8 10 8 8 7 19 17 21 22 22 15 10 11 8 5 6 3 6 4 5 6 9 8 6 5 5 3 3 4 5 6 7 7 5 4 4 4 5
37 36 39 34 43 49 17 15 5 4 8 13 23 21 22 25 23 11 9 8 8 3 10 7 8 13 11 10 7 5 5 5 3 3 3 1 8 1 5 5 5 8 8 8
40 37 39 38 41 42 35 17 4 1 3 15 17 20 24 16 16 17 3 2 7 11 6 4 4 5 5 3 4 6 4 5 2 4 4 5 7 3 2 3 4 5 7 8
37 36 38 42 40 35 34 34 21 2 2 14 22 24 20 12 7 3 2 7 8 6 3 4 4 4 6 4 3 8 6 5 4 2 4 6 6 3 5 4 2 4 8 8
40 40 38 39 39 36 29 15 20 5 3 5 9 22 21 11 5 5 5 5 5 3 3 3 3 3 7 6 9 4 3 3 5 2 2 7 6 5 2 6 6 4 5 5
38 39 38 38 34 38 31 21 24 4 3 5 5 13 8 6 7 7 7 5 5 2 4 4 3 3 5 4 7 7 6 6 3 3 3 6 6 3 6 6 3 6 4 3
31 35 36 37 38 36 39 12 22 21 2 6 25 13 5 9 10 8 5 7 9 6 4 2 4 2 2 3 3 3 1 6 5 6 6 7 3 7 6 7 6 5 6 6
32 34 36 37 38 35 38 20 9 10 3 7 6 4 10 22 24 29 5 2 6 2 4 4 3 4 4 3 4 3 1 4 4 5 2 2 3 10 9 9 10 12 12 10
30 34 34 35 31 30 31 21 22 5 2 3 4 5 6 6 16 15 11 8 6 6 4 3 3 4 3 4 4 4 5 4 6 2 2 11 10 7 11 13 13 15 16 15
32 32 31 28 28 25 24 17 25 15 2 3 3 7 10 6 10 17 17 11 7 3 3 3 3 3 4 2 3 1 3 6 4 4 2 9 5 7 12 15 13 12 13 14
28 30 28 29 24 24 15 1 27 38 15 4 3 3 5 6 11 11 7 5 3 3 4 2 2 2 4 3 3 1 6 8 4 5 9 15 13 14 14 15 13 13 13 14
25 28 29 31 29 32 9 3 3 15 19 4 2 3 5 8 7 4 4 4 3 3 3 2 3 2 4 3 4 6 7 10 9 7 13 9 6 9 13 15 17 19 19 19
26 29 32 30 26 21 17 31 6 7 2 4 4 2 4 7 2 2 3 2 3 5 2 3 3 2 2 2 5 8 9 10 9 12 13 15 15 15 12 17 15 12 10 9
34 33 31 26 9 4 8 11 8 18 8 3 3 3 3 3 3 2 4 3 3 2 2 1 4 1 2 2 10 7 8 5 12 15 15 14 14 13 12 11 9 9 8 9
38 34 5 4 11 7 4 4 4 5 4 4 2 1 1 2 1 1 2 2 3 2 2 2 3 2 4 6 7 6 5 12 15 16 10 11 12 11 11 12 10 11 11 13
4 3 3 4 8 6 4 3 4 1 4 2 2 3 2 2 3 2 1 2 1 3 3 4 1 1 3 6 7 7 10 11 10 13 11 11 14 13 12 10 13 15 15 12
5 15 8 7 5 4 6 3 2 3 3 1 2 3 2 2 1 3 1 3 2 2 2 3 3 1 10 9 6 7 10 12 14 19 17 20 18 18 17 14 14 14 14 13
9 6 5 4 5 7 3 1 2 3 3 3 3 3 1 4 3 3 3 3 1 2 2 3 1 7 7 7 7 12 18 21 21 20 22 21 19 19 19 15 15 18 17 14
5 5 6 4 3 4 4 3 3 1 2 2 3 3 2 1 3 1 4 1 2 2 3 3 3 7 6 6 9 13 13 12 12 15 18 18 18 17 17 18 18 18 17 15
5 5 5 4 1 2 1 1 2 3 2 2 2 2 2 1 3 2 3 2 2 1 2 1 4 6 6 10 10 11 11 9 10 15 15 16 16 16 17 16 17 16 15 14
4 6 3 3 3 4 3 3 2 1 1 1 2 2 3 3 2 2 3 4 2 2 2 1 5 5 8 9 10 10 14 16 15 15 15 16 16 16 17 16 15 14 12 11
4 4 3 3 3 3 3 3 3 3 3 2 2 3 1 1 3 3 3 3 2 1 1 2 5 8 10 9 10 14 18 16 17 16 14 14 17 20 17 12 11 11 12 12

GFSNW_925_spd_030.txt.gz
Wind_Speed
42 37 35 35 36 33 31 9 7 30 38 7 4 15 13 11 20 6 7 4 10 9 9 8 9 11 9 7 12 10 8 5 3 10 8 2 4 6 6 5 4 1 4 5
43 40 39 37 40 42 30 5 5 27 31 12 13 8 19 19 12 7 4 5 7 2 6 5 5 1 1 2 10 9 7 1 2 7 6 4 5 6 4 4 4 6 5 5
44 43 42 37 44 46 37 6 9 6 9 10 20 18 16 19 14 18 10 9 7 2 3 2 4 4 2 3 4 4 8 4 7 7 6 3 2 1 3 5 3 4 6 5
43 42 42 40 42 51 42 6 7 8 15 17 15 20 14 21 14 11 7 9 17 9 4 4 6 5 2 4 3 3 4 5 4 4 4 1 1 5 4 5 5 5 8 8
43 41 39 38 36 51 35 6 4 7 5 17 20 21 23 26 19 11 18 14 12 8 7 8 8 8 4 5 2 3 2 3 1 2 3 3 3 6 5 5 3 5 5 4
42 41 40 43 45 46 10 22 7 7 6 18 17 23 24 26 20 11 23 11 14 5 9 5 5 6 8 11 9 5 5 6 3 4 4 4 5 7 7 6 3 4 4 4
43 39 32 46 42 33 14 22 4 5 9 15 23 24 24 27 22 20 14 22 10 3 9 7 8 13 10 9 6 5 6 5 3 3 3 2 7 5 3 9 5 6 9 5
40 40 41 35 38 32 32 8 7 2 5 13 13 25 24 13 18 14 21 4 6 12 5 4 5 5 6 5 7 5 3 4 2 4 3 5 6 4 5 5 1 1 6 5
40 39 41 38 39 33 43 24 13 3 3 12 12 20 22 18 10 12 5 1 2 4 3 4 5 5 6 3 4 6 7 6 4 3 4 7 7 4 3 5 1 5 7 4
37 38 40 36 35 36 37 16 23 1 3 4 17 14 18 13 4 8 4 5 3 3 3 3 3 3 7 6 9 5 4 3 5 2 3 7 8 6 2 5 6 6 6 6
37 38 40 33 39 38 36 10 16 7 3 7 6 7 14 9 11 9 5 4 2 3 4 3 4 3 5 4 7 7 7 6 3 3 2 7 6 4 7 6 4 7 5 4
39 37 36 37 35 39 34 5 22 16 4 4 15 14 18 26 9 6 3 4 6 5 4 1 4 2 2 4 3 3 2 7 6 8 6 5 2 3 4 6 7 4 7 4
34 37 35 37 37 36 33 14 10 10 4 5 3 5 4 13 32 27 5 2 5 4 4 4 2 4 4 4 4 4 2 5 4 4 4 3 6 7 6 5 10 7 6 7
36 37 39 37 35 34 30 14 19 9 4 1 5 5 5 5 25 37 20 11 6 7 4 3 3 4 3 4 4 5 5 7 6 4 1 9 8 6 10 13 12 14 13 12
30 32 32 34 33 27 23 15 25 24 4 4 5 16 6 3 13 23 26 12 7 4 3 3 2 3 4 1 3 1 5 7 5 5 11 5 4 5 7 12 10 10 15 13
30 30 28 27 25 24 23 4 21 23 6 2 3 4 5 7 17 11 11 5 4 3 4 3 1 1 3 4 3 2 1 2 5 6 6 13 13 10 9 13 12 12 13 14
25 24 24 23 24 32 6 4 4 20 19 2 3 6 3 2 2 0 0 3 3 3 3 2 3 2 3 3 4 6 4 8 13 18 18 9 4 8 12 16 18 22 21 19
22 22 22 24 22 16 10 9 10 23 8 3 1 4 2 9 3 2 3 2 2 5 2 2 2 2 2 1 1 10 8 12 9 6 9 13 16 15 14 19 19 14 11 11
25 27 24 16 9 4 5 22 9 5 6 2 2 1 2 3 3 2 4 3 4 2 2 1 2 2 1 2 7 11 12 6 14 15 17 16 16 14 13 13 10 13 9 10
31 24 6 1 7 13 9 5 3 4 3 2 2 2 1 3 3 3 3 2 2 2 2 2 3 1 2 5 5 5 12 17 18 18 10 14 14 13 11 10 7 9 11 14
12 4 3 17 15 5 2 2 3 1 3 2 1 2 3 4 4 3 2 1 2 3 3 4 2 2 2 1 7 6 10 9 4 12 11 12 16 15 13 11 14 15 15 14
8 16 19 12 3 1 3 3 2 4 2 3 2 2 3 2 3 4 2 2 2 2 2 3 3 1 6 6 8 10 9 12 13 20 16 18 18 19 18 16 15 15 17 16
19 5 4 2 2 7 4 1 2 3 4 3 2 3 3 3 4 3 3 3 2 1 2 2 1 5 4 9 11 12 15 19 20 17 22 23 20 18 22 18 16 18 17 17
5 5 6 5 5 4 2 2 1 1 1 2 3 2 3 1 4 2 4 1 2 2 4 4 2 6 6 10 10 13 12 13 13 14 18 19 20 17 19 20 22 22 18 16
6 6 6 6 2 2 1 1 1 3 2 2 2 2 3 2 3 2 3 2 1 1 1 1 2 5 10 11 10 11 11 11 11 16 17 17 19 18 17 19 20 21 21 18
4 7 4 3 3 4 4 4 3 3 2 1 2 3 3 3 2 2 3 2 2 1 1 1 4 8 9 10 10 9 14 16 16 15 17 17 17 17 17 19 17 17 17 16
4 3 2 1 1 0 1 1 2 3 2 2 2 4 2 0 3 3 4 3 2 2 1 2 7 8 11 11 11 14 15 15 15 15 15 15 18 22 18 14 13 13 14 15

GFSNW_925_spd_033.txt.gz
Wind_Speed
46 51 46 41 40 32 28 11 7 29 36 7 5 13 7 4 14 2 3 3 5 6 8 8 9 10 10 10 10 9 8 6 4 9 3 4 3 2 5 4 4 1 4 6
47 52 49 43 41 43 25 7 5 28 30 12 15 7 12 9 9 7 6 5 3 1 7 5 6 7 4 6 8 9 7 1 2 7 6 4 1 4 4 4 3 6 5 6
50 49 49 48 43 45 22 4 7 7 10 17 18 20 16 19 14 12 1 3 2 2 3 2 8 6 3 5 5 7 9 4 7 7 8 4 2 3 4 5 3 3 6 6
52 51 50 49 45 43 29 5 8 8 14 21 19 19 14 25 13 17 13 5 7 3 4 1 3 3 3 3 3 2 6 5 4 3 3 4 5 5 6 7 5 6 8 7
56 55 53 47 45 41 27 7 5 7 1 18 25 18 21 26 23 10 9 15 7 13 10 8 8 7 4 6 3 3 2 3 3 3 3 3 4 7 6 5 4 7 5 6
56 58 57 55 49 41 8 17 5 3 11 20 18 29 24 25 17 19 8 19 11 6 14 10 8 5 6 10 10 5 5 6 4 4 2 2 6 8 7 7 6 6 6 8
58 55 52 52 52 51 20 22 3 4 8 15 25 21 19 24 27 14 20 21 7 5 5 5 6 9 12 9 7 2 6 6 3 3 3 1 7 2 7 5 2 4 5 5
56 54 52 51 52 48 36 22 11 2 4 18 15 23 23 15 17 18 18 7 9 9 3 3 4 5 5 4 8 5 2 6 3 4 4 4 4 4 6 5 3 3 6 7
52 50 48 47 45 47 44 20 24 4 4 9 13 19 19 17 16 8 8 9 3 6 3 3 6 5 6 3 3 4 5 6 4 3 5 8 8 4 4 6 2 5 5 6
49 46 45 44 43 44 34 15 24 13 2 4 12 13 16 12 11 8 4 7 3 3 3 3 3 3 5 7 10 6 3 4 5 2 3 7 8 5 5 6 7 8 8 7
44 44 43 43 40 36 37 25 21 11 2 6 4 4 5 14 13 13 6 4 1 3 5 4 4 3 6 4 5 7 7 7 4 3 3 7 6 5 8 6 2 7 5 6
40 41 41 38 35 35 43 12 18 14 1 4 13 21 26 17 10 9 5 6 6 5 4 0 3 3 2 5 3 2 2 7 6 8 6 4 3 4 3 5 8 6 7 6
36 35 34 33 34 32 44 13 18 9 2 6 3 6 16 19 28 27 5 3 3 3 3 4 2 4 4 4 5 4 3 4 4 4 2 4 2 3 4 3 5 5 4 7
34 33 32 33 28 34 32 15 15 13 1 3 4 13 11 9 17 28 18 7 6 5 3 3 3 3 3 4 4 5 5 8 7 1 1 3 4 3 6 10 10 12 10 7
33 33 30 27 31 36 24 11 16 9 3 2 5 14 7 10 10 24 17 9 6 3 3 2 2 3 4 1 2 1 5 7 6 6 11 5 5 7 8 10 9 9 14 11
32 31 28 34 33 29 19 3 13 23 4 2 3 5 5 8 5 9 9 5 3 3 4 3 1 1 3 4 3 3 3 2 4 5 9 5 12 8 5 11 9 10 12 13
33 34 33 29 27 25 5 5 7 30 15 2 3 4 4 3 2 3 3 3 3 1 3 2 2 2 3 3 4 4 5 6 11 16 16 8 3 6 10 13 15 18 18 17
32 35 32 28 27 21 10 3 17 34 7 2 3 4 4 3 1 3 1 2 3 3 2 2 2 1 2 1 1 6 9 12 10 5 6 12 16 14 13 18 18 15 12 11
31 29 28 22 9 5 4 19 29 10 7 3 3 3 3 4 2 2 3 1 2 2 2 2 2 1 3 1 5 9 12 5 13 13 16 17 17 15 14 14 12 15 10 9
29 23 5 3 8 19 14 5 1 3 3 2 1 1 1 3 0 2 3 2 2 1 1 2 3 2 3 3 2 7 11 16 17 18 10 14 14 13 12 12 10 10 10 13
6 3 2 14 21 7 3 1 2 2 2 0 2 3 2 3 3 3 3 4 3 3 2 5 3 2 2 3 6 8 9 10 5 10 11 9 16 15 14 12 14 16 16 14
9 17 15 5 3 4 1 4 2 3 4 1 1 1 1 2 2 3 3 3 2 2 2 3 3 0 4 5 8 8 9 11 12 17 17 16 17 18 17 16 16 16 17 21
2 5 4 3 1 3 1 1 1 2 2 2 2 3 1 3 4 4 3 4 0 1 3 1 1 3 6 8 10 11 11 14 14 15 20 23 21 20 22 18 18 19 18 20
4 5 5 3 3 3 2 2 1 1 2 2 2 3 3 2 4 2 4 1 1 2 2 2 0 5 7 6 7 12 11 12 13 12 18 19 20 18 18 20 22 21 18 17
4 3 4 4 1 1 2 2 1 3 2 2 2 3 3 3 4 3 3 3 3 2 0 2 2 7 7 8 9 11 11 10 11 15 16 17 18 18 17 18 20 21 21 20
4 6 3 3 2 4 3 3 2 5 3 2 2 3 3 4 2 4 4 2 3 2 2 2 4 7 7 8 9 9 12 13 14 16 16 15 15 17 18 20 20 20 20 19
5 3 3 2 1 3 3 4 3 4 2 3 3 5 5 3 3 4 4 3 4 4 2 3 5 6 8 8 8 12 15 14 14 14 14 15 18 23 19 15 14 17 16 15

GFSNW_925_spd_036.txt.gz
Wind_Speed
52 47 44 41 46 43 38 10 6 24 37 10 8 17 7 8 17 2 4 3 4 4 7 7 8 10 10 10 10 9 7 6 4 9 3 3 5 6 6 5 4 1 4 6
54 50 47 44 47 49 35 6 5 30 33 14 17 13 13 5 14 8 6 4 4 1 4 4 6 7 5 9 8 9 7 1 2 7 5 4 4 4 3 5 3 6 5 6
56 52 49 48 52 51 34 4 8 6 11 17 19 23 16 23 6 4 6 2 3 1 3 4 7 7 5 8 8 7 7 4 7 8 8 4 4 6 5 5 4 4 6 6
58 53 51 52 55 53 33 5 7 6 14 22 21 19 14 21 17 16 8 2 5 3 3 1 4 2 2 2 6 5 7 7 5 4 4 4 5 4 8 7 5 6 7 8
60 54 53 59 60 51 20 4 4 4 6 20 24 13 24 24 23 8 16 6 9 8 5 7 5 3 4 6 5 6 1 5 4 2 2 2 3 5 5 4 3 5 6 7
61 55 56 61 61 53 9 13 6 3 14 20 18 30 18 20 19 20 7 21 17 8 20 16 8 6 4 1 5 9 7 7 4 4 3 4 7 9 9 6 5 7 7 10
60 55 56 67 67 62 18 20 3 4 7 13 24 18 21 21 22 13 19 7 13 7 4 5 4 5 5 7 5 1 8 7 2 3 2 2 7 1 3 8 7 6 5 3
58 60 64 61 58 55 24 22 6 2 4 12 11 17 25 15 15 14 12 14 4 4 4 3 1 4 3 2 5 5 2 6 3 5 4 5 4 5 7 8 8 7 6 6
61 64 63 61 49 51 33 19 20 3 2 5 9 14 14 18 14 9 8 15 2 5 2 2 6 6 6 5 3 4 5 6 5 3 5 8 8 5 5 4 4 8 8 9
62 62 62 58 54 45 33 18 19 0 1 4 2 15 12 9 12 1 5 13 4 6 1 3 3 5 4 6 10 6 3 3 5 2 3 7 8 4 4 6 8 8 11 8
58 56 55 52 47 44 36 23 21 6 4 9 6 4 7 10 15 13 4 5 4 3 6 4 4 3 6 3 4 7 7 7 3 3 3 7 7 4 9 7 1 6 7 8
53 53 49 45 43 40 33 9 26 26 5 2 5 13 19 8 2 11 8 7 6 6 4 1 2 2 0 5 4 0 3 6 7 9 7 4 6 5 5 4 6 7 8 6
47 43 40 40 39 37 33 13 24 20 2 4 5 7 6 14 21 17 10 2 2 2 3 5 3 4 4 4 5 4 3 3 4 4 5 6 5 3 2 2 4 5 4 8
37 38 38 37 38 40 34 21 16 16 3 1 5 4 7 6 13 26 21 3 5 5 0 3 3 3 4 4 4 4 4 8 7 3 4 2 6 5 4 4 7 9 8 5
37 36 36 38 36 35 28 28 15 25 2 2 4 13 8 6 8 16 20 13 5 2 2 1 3 2 3 1 1 2 5 7 6 7 9 7 5 9 7 7 6 8 14 10
34 34 35 35 34 28 25 4 9 19 12 1 2 4 4 5 6 10 12 11 3 4 4 4 2 2 3 4 4 4 6 6 5 5 8 4 9 8 4 9 8 9 11 13
31 33 31 29 27 32 8 3 7 21 9 1 3 3 2 4 1 1 2 2 3 3 3 3 2 2 3 3 5 5 7 5 5 10 13 6 5 6 9 13 12 19 19 18
31 29 26 29 31 20 9 12 17 30 6 2 3 4 4 6 3 1 2 3 2 3 3 2 2 0 1 3 2 4 5 10 8 2 5 7 15 15 13 16 16 15 13 12
27 33 36 27 6 3 4 10 34 15 4 5 3 2 2 1 1 1 1 1 2 0 2 1 2 1 5 1 1 4 4 3 10 12 12 14 16 15 14 14 12 16 13 12
36 29 4 2 7 17 30 12 5 1 2 2 3 0 1 1 2 2 1 1 2 2 1 2 2 3 1 1 3 7 8 10 14 17 9 13 14 14 14 12 11 14 13 16
7 2 1 3 18 6 2 4 6 3 3 3 3 3 2 1 2 3 3 3 0 3 2 4 0 3 2 4 5 6 9 7 1 7 9 8 15 16 15 12 10 17 19 17
7 4 10 8 3 2 3 1 2 2 3 0 2 2 3 2 1 2 4 4 1 1 4 3 3 1 0 5 5 7 7 6 9 10 14 14 13 15 13 13 14 15 21 24
4 3 3 1 2 3 3 1 1 1 2 0 1 1 1 2 2 2 1 4 3 2 3 2 1 3 4 6 7 10 10 12 13 14 18 20 21 20 22 18 17 19 21 21
3 3 5 5 4 4 2 2 1 1 2 1 0 1 2 1 3 2 4 1 2 3 2 3 3 3 5 6 7 10 10 11 13 13 16 17 18 19 18 22 20 21 19 19
3 4 4 4 2 1 3 2 1 3 2 2 1 3 3 3 3 2 2 3 4 5 3 3 3 4 6 7 8 8 8 9 10 13 13 17 20 19 18 17 18 20 22 21
4 6 3 3 2 8 6 8 4 4 4 1 3 3 3 5 3 5 6 4 4 3 3 3 2 4 6 7 8 8 10 12 13 16 18 18 18 17 17 18 19 19 21 20
5 4 6 5 3 4 5 5 6 4 2 3 3 6 4 3 4 5 5 4 4 7 5 3 4 5 7 8 9 11 15 15 16 18 18 18 20 22 19 16 14 17 17 17